To NAV CANADA Home Page Login to a new session Search on AWWS site Feedback and Comments Disclaimer Vers la page française équivalente Tips FAQ What's new on the site To the Forecasts and Observations / NOTAM section To "File a Flight Plan" website Publications and other links Update of the User's profile FIC Telephone Numbers My Weather Data Folder Route Weather Data Regional Weather Data Local Weather Data To the Forecasts and Observations / NOTAM section
Request Generated 04/30/2016 at 01:31:20 UTC . Weather information available at that time is displayed.

METAR/TAF

DAWSON CITY/YT    

LWIS CYDA 300100Z AUTO 20002KT 11/M00 A2979=
LWIS CYDA 300000Z AUTO 26004KT 240V320 12/M01 A2979=
METAR CYDA 292300Z 25007KT 20SM SCT040 BKN055 BKN210 11/M01 A2978 RMK
NS3SC3CI1 CLIMAT 13.0/1.5/TR MM LAST STFD OBS/NXT 301400Z SLP100=

*** REMARK        : Forecast period has ended; this was the last TAF issued
*** REMARQUE : La période de prévision est échue; ceci était le dernier TAF qui a été émis
TAF CYDA 291738Z 2918/2923 VRB03KT P6SM BKN050 BKN080 TEMPO 2920/2923
P6SM -SHRA
RMK NXT FCST WILL BE ISSUED AT 301545Z=
Your time UTC time
Weather data provided by Environment Canada and NAV CANADA